Regional Weather Roundup
Issued by NWS

Home | Current Version | Previous Version | Text Only | Print | Product List | Glossary Off
Versions: 1 2 3 4 5 6 7 8 9 10 11 12 13 14 15 16 17 18 19 20 21 22 23 24 25 26 27

000
ASUS45 KBOI 300710
RWRID
WEATHER ROUNDUP FOR IDAHO
NATIONAL WEATHER SERVICE BOISE ID
100 AM MDT THU OCT 30 2014

NOTE: "FAIR" INDICATES FEW OR NO CLOUDS BELOW 12000 FEET
WITH NO SIGNIFICANT WEATHER AND/OR OBSTRUCTIONS TO VISIBILITY

IDZ012-014-300800-
SOUTHWEST IDAHO


CITY           SKY/WX    TMP DP  RH WIND       PRES   REMARKS
BOISE          MOCLDY    48  41  76 CALM      30.19R
CALDWELL       MOCLDY    45  36  70 CALM      30.21S
MOUNTAIN HOME  CLOUDY    47  40  76 E2        30.20S
$$

IDZ016-017-300800-
SOUTHCENTRAL IDAHO


CITY           SKY/WX    TMP DP  RH WIND       PRES   REMARKS
BURLEY         CLEAR     37  31  78 CALM      30.24S
JEROME         MOCLDY    46  37  71 E7        30.24S
TWIN FALLS     CLEAR     39  32  76 SE3       30.24S
$$

IDZ019>023-300800-
SOUTHEAST IDAHO


CITY           SKY/WX    TMP DP  RH WIND       PRES   REMARKS
IDAHO FALLS    CLOUDY    44  35  70 SW5       30.28R
POCATELLO      CLOUDY    52  30  43 SW7       30.27S
REXBURG        PTCLDY    32  27  81 E6        30.27S WCI  26
$$

IDZ006-010-011-018-031-032-300800-
CENTRAL IDAHO MOUNTAINS


CITY           SKY/WX    TMP DP  RH WIND       PRES   REMARKS
MCCALL         CLOUDY    37  35  92 NE3       30.22F
HAILEY         PTCLDY    45  27  49 NW8       30.27F
STANLEY          N/A     32  27  81 CALM      30.31S
SALMON         PTCLDY    36  32  87 CALM      30.26S
CHALLIS        CLOUDY    40  30  67 CALM      30.27F
$$

IDZ002-004-006-007-026-300800-
NORTHERN IDAHO


CITY           SKY/WX    TMP DP  RH WIND       PRES   REMARKS
LEWISTON       PTCLDY    50  46  86 E6        30.15F
LOWELL           N/A     48  45  89 CALM      30.25S
COEUR D`ALENE  CLOUDY    45  43  93 E6        30.19F
MULLAN PASS    MOCLDY    35  35 100 S6        30.23S FOG     WCI  30
$$



USA.gov is the U.S. government's official web portal to all federal, state and local government web resources and services.